Weather History for Eastover, SC

Change the Weather History Date:

Saturday, October 1, 2011

  Actual Average Record
Temperature  
Mean Temperature 58 °F -  
Max Temperature 69 °F 77 °F 89 °F (1998)
Min Temperature 49 °F 58 °F 42 °F (2001)
Degree Days  
Heating Degree Days 6    
Growing Degree Days 8 (Base 50)    
Moisture  
Dew Point 39 °F    
Average Humidity 52    
Maximum Humidity 82    
Minimum Humidity 28    
Precipitation  
Precipitation 0.00 in - - ()
Sea Level Pressure  
Sea Level Pressure 29.93 in    
Wind  
Wind Speed 10 mph (NW)    
Max Wind Speed 21 mph    
Max Gust Speed 28 mph    
Visibility 10 miles    
Events      
Averages and records for this station are not official NWS values.
T = Trace of Precipitation, MM = Missing Value Source: NWS Daily Summary

Daily Weather History Graph

Daily Weather History Graph

Search for Another Location

Airport:

Trip Planner

Search our weather history database for the weather conditions in past years. The results will help you decide how hot, cold, wet, or windy it might be!

Date:

Astronomy

Oct. 01, 2011 Rise Set
Actual Time 7:17 AM EDT 7:07 PM EDT
Civil Twilight 6:52 AM EDT 7:32 PM EDT
Nautical Twilight 6:23 AM EDT 8:01 PM EDT
Astronomical Twilight 5:54 AM EDT 8:30 PM EDT
Moon 12:06 PM EDT (10/1) 10:19 PM EDT (10/1)
Length of Visible Light 12h 40m
Length of Day
11h 50m
Waxing Crescent, 24% of the Moon is Illuminated
Oct 1
Waxing Crescent
Oct 3
First Quarter
Oct 11
Full
Oct 19
Last Quarter
Oct 26
New

Hourly Weather History & Observations

Time (EDT) Temp. Dew Point Humidity Pressure Visibility Wind Dir Wind Speed Gust Speed Precip Events Conditions
12:55 AM 57.0 °F 47.1 °F 69% 29.85 in 10.0 mi WNW 5.8 mph - N/A   Clear
1:55 AM 53.2 °F 46.8 °F 79% 29.84 in 10.0 mi NNW 6.9 mph - N/A   Clear
2:55 AM 51.6 °F 46.4 °F 82% 29.84 in 10.0 mi NNW 5.8 mph - N/A   Clear
3:55 AM 53.6 °F 46.4 °F 77% 29.85 in 10.0 mi NW 9.2 mph - N/A   Clear
4:55 AM 54.5 °F 45.0 °F 70% 29.87 in 10.0 mi NW 9.2 mph - N/A   Clear
5:55 AM 51.4 °F 44.2 °F 76% 29.88 in 10.0 mi NW 6.9 mph - N/A   Clear
6:55 AM 49.6 °F 42.3 °F 76% 29.89 in 10.0 mi NW 8.1 mph - N/A   Clear
7:55 AM 51.1 °F 43.3 °F 75% 29.92 in 10.0 mi WNW 4.6 mph - N/A   Partly Cloudy
8:55 AM 57.4 °F 41.2 °F 55% 29.92 in 10.0 mi NNW 8.1 mph - N/A   Partly Cloudy
9:55 AM 61.0 °F 37.9 °F 42% 29.93 in 10.0 mi NW 13.8 mph - N/A   Partly Cloudy
10:55 AM 63.9 °F 38.5 °F 39% 29.94 in 10.0 mi NNW 12.7 mph - N/A   Partly Cloudy
11:55 AM 65.7 °F 34.9 °F 32% 29.94 in 10.0 mi NW 13.8 mph 21.9 mph N/A   Partly Cloudy
12:55 PM 67.3 °F 32.7 °F 28% 29.93 in 10.0 mi NW 19.6 mph 24.2 mph N/A   Partly Cloudy
1:55 PM 68.4 °F 34.7 °F 29% 29.92 in 10.0 mi NW 17.3 mph 27.6 mph N/A   Partly Cloudy
2:55 PM 68.0 °F 34.0 °F 28% 29.93 in 10.0 mi NW 17.3 mph 21.9 mph N/A   Partly Cloudy
3:55 PM 68.4 °F 34.3 °F 28% 29.92 in 10.0 mi NNW 20.7 mph 25.3 mph N/A   Partly Cloudy
4:55 PM 67.5 °F 34.2 °F 29% 29.93 in 10.0 mi NNW 18.4 mph 24.2 mph N/A   Clear
5:55 PM 64.8 °F 34.0 °F 32% 29.96 in 10.0 mi NNW 17.3 mph - N/A   Clear
6:55 PM 61.0 °F 32.7 °F 35% 29.98 in 10.0 mi NNW 11.5 mph - N/A   Clear
7:55 PM 52.9 °F 35.6 °F 52% 29.99 in 10.0 mi NNW 9.2 mph - N/A   Clear
8:55 PM 54.3 °F 35.1 °F 48% 30.01 in 10.0 mi NW 8.1 mph - N/A   Clear
9:55 PM 55.2 °F 34.9 °F 46% 30.02 in 10.0 mi North 11.5 mph - N/A   Clear
10:55 PM 52.5 °F 36.3 °F 54% 30.03 in 10.0 mi NNW 8.1 mph - N/A   Clear
11:55 PM 50.0 °F 37.2 °F 62% 30.04 in 10.0 mi NW 9.2 mph - N/A   Clear